[[{"header":{"parameterUnit":"m.s-1","parameterCategory":1,"la1":30.2991,"la2":30.254,"lo1":-89.0895,"lo2":-89.0444,"dy":0.0017,"dx":0.0017,"nx":28,"ny":28,"refTime":"2026-02-07T09:00:00:Z","depth":0,"parameterNumber":2,"parameterNumberName":"U-component_of_WINDS"},"data":[0,0,0,0,0,0,0,0,0,0,0,0,0,0,0,0,0,0,0,0,0,0,0,0,0,0,0,0,0,0,0,0,0,0,0,0,0,0,0,0,0,0,0,0,0,0,0,0,0,0,0,0,0,0,0,0,0,0,-1.8535,-1.8536,0,-1.8592,-1.8592,-1.8593,-1.8563,-1.8561,-1.856,-1.8558,-1.8619,-1.8622,-1.8625,0,0,0,0,0,0,0,0,0,0,0,0,0,-1.8405,-1.8407,-1.8535,-1.8536,-1.8537,-1.8592,-1.8592,-1.8593,-1.8563,-1.8561,-1.8559,-1.8557,-1.8618,-1.8622,-1.8625,0,0,0,0,0,0,0,0,0,0,0,0,0,-1.8461,-1.8408,-1.8535,-1.8528,-1.8528,-1.8591,-1.8592,-1.8593,-1.8563,-1.8561,-1.8559,-1.8556,-1.8617,-1.8621,-1.8626,-1.87,0,0,-1.864,-1.8642,0,0,0,0,0,0,0,0,-1.8458,-1.8466,-1.8529,-1.8529,-1.8529,-1.8568,-1.8569,-1.8629,-1.8564,-1.855,-1.8558,-1.8555,-1.8604,-1.861,-1.8625,-1.8703,-1.8706,-1.864,-1.8643,-1.8645,-1.8646,0,0,0,0,0,0,0,-1.8454,-1.8464,-1.8558,-1.853,-1.853,-1.8523,-1.8529,-1.858,-1.8589,-1.8551,-1.8549,-1.8556,-1.8604,-1.8621,-1.8626,-1.8707,-1.864,-1.8644,-1.8647,-1.8649,-1.885,-1.8852,0,0,0,0,0,0,-1.845,-1.8461,-1.8556,-1.8559,-1.8487,-1.8527,-1.8534,-1.8558,-1.8589,-1.8591,-1.8558,-1.8554,-1.8614,-1.8621,-1.8628,-1.8719,-1.8645,-1.8649,-1.8652,-1.8847,-1.885,-1.8853,0,0,0,0,0,0,-1.8448,-1.8459,-1.8554,-1.851,-1.8521,-1.8532,-1.8559,-1.856,-1.8577,-1.8594,-1.8596,-1.8574,-1.8613,-1.8622,-1.8683,-1.8721,-1.8651,-1.8655,-1.8844,-1.8848,-1.8852,-1.89,0,0,0,0,0,0,-1.8444,-1.8458,-1.8486,-1.851,-1.8523,-1.8606,-1.8562,-1.8563,-1.8585,-1.8581,-1.8609,-1.8612,-1.8612,-1.8676,-1.8687,-1.8726,-1.8659,-1.8841,-1.8846,-1.885,-1.8895,-1.8905,-1.8913,0,0,0,0,0,-1.844,-1.8498,-1.8488,-1.8499,-1.8558,-1.8609,-1.8616,-1.8614,-1.8588,-1.8617,-1.8627,-1.8611,-1.8714,-1.8682,-1.8695,-1.8735,-1.8838,-1.8844,-1.885,-1.8891,-1.8903,-1.8913,0,0,0,0,0,0,-1.8479,-1.8501,-1.849,-1.8558,-1.8581,-1.8603,-1.8639,-1.8627,-1.8659,-1.8654,-1.8651,-1.8658,-1.8721,-1.8734,-1.8698,-1.8809,-1.8772,-1.8781,-1.8799,-1.8811,-1.882,-1.8816,-1.8663,0,0,0,0,0,-1.8496,-1.8534,-1.8551,-1.8609,-1.8621,-1.8628,-1.865,-1.8646,-1.8671,-1.8681,-1.8697,-1.8722,-1.876,-1.8786,-1.8822,-1.8896,-1.8902,-1.893,-1.8939,-1.8946,-1.8955,-1.8996,-1.9009,-1.8872,-1.8872,-1.8872,0,0,-1.8531,-1.8547,-1.8572,-1.8618,-1.8636,-1.8676,-1.8637,-1.8682,-1.8712,-1.8689,-1.8747,-1.8759,-1.8787,-1.8855,-1.8886,-1.8868,-1.8993,-1.8954,-1.896,-1.8964,-1.9003,-1.9016,-1.9028,-1.8876,-1.8875,-1.8875,0,0,-1.8616,-1.8631,-1.8682,-1.87,-1.8727,-1.8731,-1.8744,-1.8767,-1.8774,-1.8832,-1.8816,-1.8852,-1.8918,-1.8939,-1.8958,-1.9051,-1.9037,-1.9062,-1.9111,-1.9152,-1.9162,-1.9172,-1.9207,-1.9219,-1.907,-1.907,-1.907,0,-1.8656,-1.8715,-1.871,-1.8756,-1.8777,-1.8756,-1.8808,-1.8826,-1.8865,-1.888,-1.8859,-1.8941,-1.8959,-1.9032,-1.9055,-1.907,-1.9085,-1.906,-1.9161,-1.9171,-1.9179,-1.9212,-1.9225,-1.9073,-1.9073,-1.9072,-1.9072,0,-1.8765,-1.8806,-1.8844,-1.888,-1.8906,-1.8955,-1.8957,-1.8984,-1.8977,-1.8984,-1.9044,-1.9064,-1.9104,-1.9121,-1.9116,-1.9194,-1.9182,-1.9161,-1.9124,-1.9196,-1.9227,-1.9239,-1.9077,-1.9076,-1.9075,-1.9075,0,0,-1.8878,-1.891,-1.8924,-1.8941,-1.8968,-1.9001,-1.9049,-1.9087,-1.9111,-1.9137,-1.9179,-1.9235,-1.9215,-1.9237,-1.9234,-1.9269,-1.9343,-1.9244,-1.9245,-1.9263,-1.9432,-1.9449,-1.9464,-1.9333,-1.9335,-1.9337,-1.943,0,-1.8966,-1.9049,-1.9045,-1.9124,-1.9163,-1.9143,-1.9185,-1.9208,-1.9215,-1.925,-1.9258,-1.9298,-1.9269,-1.9282,-1.9316,-1.9327,-1.9377,-1.932,-1.9373,-1.9375,-1.9369,-1.948,-1.9498,-1.9585,-1.9442,-1.9444,-1.9445,0,-1.908,-1.911,-1.9192,-1.9215,-1.9231,-1.9269,-1.9304,-1.9337,-1.9362,-1.9365,-1.9389,-1.938,-1.943,-1.939,-1.9459,-1.9421,-1.9442,-1.9451,-1.9454,-1.9461,-1.9416,-1.9491,-1.9612,-1.9626,-1.9464,-1.9463,-1.9461,0,-1.9157,-1.9217,-1.9275,-1.9289,-1.9316,-1.9344,-1.9356,-1.9379,-1.9402,-1.9433,-1.9449,-1.9485,-1.9506,-1.9534,-1.9536,-1.9506,-1.9606,-1.9566,-1.9612,-1.9612,-1.9636,-1.9635,-1.9764,-1.9646,-1.9646,-1.9646,-1.9645,0,-1.9257,-1.9309,-1.931,-1.9345,-1.9403,-1.9397,-1.9455,-1.9465,-1.9485,-1.9523,-1.9508,-1.9544,-1.9542,-1.9579,-1.9581,-1.9639,-1.9648,-1.9653,-1.9653,-1.9655,-1.9655,-1.9671,-1.9666,-1.9649,-1.9648,-1.9648,-1.9647,0,-1.9354,-1.9356,-1.9417,-1.9437,-1.9444,-1.9486,-1.9503,-1.9538,-1.9543,-1.9591,-1.9602,-1.9611,-1.9654,-1.9657,-1.9707,-1.9708,-1.9779,-1.9771,-1.977,-1.977,-1.9816,-1.9812,-1.9962,-1.9982,-1.9849,-1.985,-1.9851,0,-1.9418,-1.9457,-1.9482,-1.9505,-1.952,-1.9558,-1.9582,-1.9578,-1.9603,-1.9635,-1.9666,-1.9706,-1.9739,-1.9809,-1.982,-1.9858,-1.9853,-1.9903,-1.9859,-1.986,-1.9856,-1.9855,-1.9859,-1.9912,-1.9913,-1.9915,-1.9916,0,-1.9534,-1.9533,-1.9567,-1.9601,-1.963,-1.9657,-1.9682,-1.9703,-1.9703,-1.9732,-1.9775,-1.98,-1.985,-1.9892,-1.9929,-1.9943,-1.9931,-1.9929,-1.9942,-1.9946,-1.9945,-1.9948,-1.9796,-1.9926,-1.9925,-1.9924,-1.9924,-1.9923,-1.9618,-1.9652,-1.9674,-1.9713,-1.9731,-1.9755,-1.9789,-1.9798,-1.9833,-1.9873,-1.9869,-1.9917,-1.9941,-1.999,-2.0007,-2.0045,-2.0028,-2.0047,-2.0052,-2.0057,-2.0063,-1.9936,-2.0051,-2.0051,-2.0051,-2.0051,-2.005,0,-1.9734,-1.9747,-1.9782,-1.9818,-1.9849,-1.9831,-1.9859,-1.9886,-1.9928,-1.9951,-1.9984,-2.0034,-2.0073,-2.0088,-2.0127,-2.0155,-2.015,-2.0165,-2.0165,-2.0168,-2.0074,-2.006,-2.0169,-2.0169,-2.0169,-2.0169,-2.0169,-2.0169,-1.9798,-1.9856,-1.9857,-1.9924,-1.9937,-1.9983,-2.0,-2.0023,-2.0041,-2.0097,-2.013,-2.0138,-2.0159,-2.0199,-2.0235,-2.0238,-2.0255,-2.0273,-2.0274,-2.0187,-2.0175,-2.0163,-2.015,-2.0276,-2.0276,-2.0365,-2.0366,-2.0367]},{"header":{"parameterUnit":"m.s-1","parameterCategory":1,"la1":30.2991,"la2":30.254,"lo1":-89.0895,"lo2":-89.0444,"dy":0.0017,"dx":0.0017,"nx":28,"ny":28,"refTime":"2026-02-07T09:00:00:Z","depth":0,"parameterNumber":3,"parameterNumberName":"V-component_of_WINDS"},"data":[0,0,0,0,0,0,0,0,0,0,0,0,0,0,0,0,0,0,0,0,0,0,0,0,0,0,0,0,0,0,0,0,0,0,0,0,0,0,0,0,0,0,0,0,0,0,0,0,0,0,0,0,0,0,0,0,0,0,-4.407,-4.4072,0,-4.4193,-4.4195,-4.4196,-4.4183,-4.4181,-4.4179,-4.4177,-4.4299,-4.4304,-4.4309,0,0,0,0,0,0,0,0,0,0,0,0,0,-4.382,-4.3825,-4.407,-4.4072,-4.4073,-4.4193,-4.4195,-4.4196,-4.4183,-4.418,-4.4178,-4.4176,-4.4297,-4.4303,-4.4309,0,0,0,0,0,0,0,0,0,0,0,0,0,-4.3934,-4.3826,-4.407,-4.4081,-4.4083,-4.4193,-4.4195,-4.4197,-4.4183,-4.418,-4.4178,-4.4175,-4.4295,-4.4303,-4.431,-4.4415,0,0,-4.4333,-4.4337,0,0,0,0,0,0,0,0,-4.3928,-4.3944,-4.4078,-4.408,-4.4083,-4.417,-4.4151,-4.427,-4.4184,-4.4145,-4.4177,-4.4173,-4.4258,-4.4268,-4.4298,-4.4421,-4.4426,-4.4334,-4.4339,-4.4342,-4.4344,0,0,0,0,0,0,0,-4.392,-4.3938,-4.4119,-4.408,-4.4083,-4.4079,-4.4092,-4.4174,-4.4216,-4.4148,-4.4148,-4.4163,-4.4259,-4.4291,-4.4301,-4.4428,-4.4334,-4.4341,-4.4345,-4.4348,-4.4644,-4.4647,0,0,0,0,0,0,-4.391,-4.3932,-4.4115,-4.4122,-4.3997,-4.4086,-4.41,-4.4145,-4.4215,-4.4223,-4.4165,-4.4162,-4.4279,-4.4292,-4.4305,-4.4434,-4.4342,-4.4349,-4.4353,-4.4641,-4.4645,-4.4649,0,0,0,0,0,0,-4.3905,-4.3926,-4.411,-4.4027,-4.405,-4.4093,-4.4143,-4.4149,-4.4181,-4.4228,-4.4235,-4.419,-4.4277,-4.4294,-4.4388,-4.4438,-4.4352,-4.4359,-4.4637,-4.4642,-4.4647,-4.4691,0,0,0,0,0,0,-4.3898,-4.3925,-4.3966,-4.4028,-4.4055,-4.4193,-4.4146,-4.4153,-4.4194,-4.4191,-4.4253,-4.4261,-4.4276,-4.4377,-4.4396,-4.4446,-4.4365,-4.4633,-4.4639,-4.4645,-4.4686,-4.4697,-4.4707,0,0,0,0,0,-4.3889,-4.3972,-4.3968,-4.399,-4.4107,-4.4195,-4.421,-4.4228,-4.4198,-4.424,-4.427,-4.4259,-4.4429,-4.4387,-4.4408,-4.4461,-4.463,-4.4638,-4.4645,-4.4681,-4.4695,-4.4707,0,0,0,0,0,0,-4.3913,-4.3981,-4.3977,-4.4083,-4.4134,-4.4193,-4.4246,-4.4242,-4.4301,-4.4295,-4.4313,-4.4327,-4.4422,-4.4451,-4.4403,-4.4567,-4.4525,-4.4537,-4.4545,-4.4559,-4.457,-4.4561,-4.4371,0,0,0,0,0,-4.3931,-4.3998,-4.4053,-4.4142,-4.4168,-4.4202,-4.4241,-4.4251,-4.4303,-4.4324,-4.4362,-4.4412,-4.4477,-4.4519,-4.4582,-4.4689,-4.4703,-4.4736,-4.4747,-4.4756,-4.4766,-4.4826,-4.4842,-4.4673,-4.4673,-4.4673,0,0,-4.3968,-4.4014,-4.4055,-4.4148,-4.4188,-4.4257,-4.422,-4.4294,-4.4345,-4.4335,-4.4427,-4.4456,-4.4514,-4.4615,-4.4662,-4.4642,-4.4815,-4.4765,-4.4772,-4.4777,-4.4835,-4.4851,-4.4865,-4.4678,-4.4677,-4.4676,0,0,-4.4072,-4.4113,-4.4192,-4.4234,-4.4296,-4.4319,-4.4337,-4.4398,-4.4417,-4.451,-4.4504,-4.4564,-4.4675,-4.4717,-4.4753,-4.4873,-4.4865,-4.4892,-4.4949,-4.5007,-4.502,-4.5032,-4.5075,-4.5091,-4.4902,-4.4903,-4.4903,0,-4.411,-4.4215,-4.4232,-4.4308,-4.4349,-4.4345,-4.4424,-4.4463,-4.4542,-4.457,-4.4547,-4.4688,-4.4726,-4.4838,-4.4867,-4.4896,-4.4918,-4.4886,-4.5017,-4.5029,-4.504,-4.5082,-4.5098,-4.4906,-4.4905,-4.4905,-4.4905,0,-4.4259,-4.4332,-4.4388,-4.4466,-4.4513,-4.459,-4.4619,-4.4665,-4.4669,-4.4694,-4.4789,-4.4835,-4.4907,-4.4934,-4.4938,-4.5047,-4.5033,-4.5013,-4.4971,-4.5059,-4.5099,-4.5115,-4.491,-4.4909,-4.4908,-4.4907,0,0,-4.4382,-4.447,-4.449,-4.4526,-4.4595,-4.4651,-4.4727,-4.4799,-4.4838,-4.4892,-4.4957,-4.5052,-4.5034,-4.5075,-4.5084,-4.5135,-4.5228,-4.5109,-4.5111,-4.5131,-4.5351,-4.5366,-4.5384,-4.5223,-4.5226,-4.5229,-4.5347,0,-4.4493,-4.4631,-4.4649,-4.4771,-4.4838,-4.4835,-4.4901,-4.495,-4.4975,-4.5035,-4.5062,-4.513,-4.5101,-4.5126,-4.5176,-4.5206,-4.5273,-4.5198,-4.5283,-4.5286,-4.527,-4.5405,-4.5421,-4.553,-4.5362,-4.5365,-4.5367,0,-4.4641,-4.4702,-4.4831,-4.4891,-4.492,-4.498,-4.5048,-4.5105,-4.516,-4.5175,-4.5221,-4.5224,-4.5302,-4.5257,-4.5365,-4.5314,-4.5349,-4.537,-4.5374,-4.5383,-4.5332,-4.5419,-4.5565,-4.5582,-4.5391,-4.5389,-4.5387,0,-4.4719,-4.4832,-4.4925,-4.4955,-4.5028,-4.507,-4.5102,-4.5154,-4.5197,-4.5255,-4.5283,-4.5349,-4.5386,-4.5436,-4.5457,-4.5422,-4.5565,-4.552,-4.5579,-4.5578,-4.561,-4.5608,-4.5765,-4.5631,-4.5631,-4.563,-4.563,0,-4.4842,-4.4921,-4.4961,-4.5017,-4.5106,-4.5126,-4.5212,-4.5242,-4.5289,-4.5351,-4.5351,-4.5409,-4.5432,-4.5493,-4.5509,-4.5597,-4.5613,-4.5627,-4.563,-4.5628,-4.5626,-4.5652,-4.5645,-4.5635,-4.5634,-4.5633,-4.5632,0,-4.4944,-4.4974,-4.5074,-4.5135,-4.5152,-4.5215,-4.5266,-4.5321,-4.5346,-4.5424,-4.5443,-4.5482,-4.5554,-4.5579,-4.5666,-4.5677,-4.5779,-4.5776,-4.5761,-4.5762,-4.582,-4.5814,-4.6,-4.6025,-4.5874,-4.5875,-4.5876,0,-4.5021,-4.5082,-4.515,-4.5193,-4.5227,-4.5294,-4.5338,-4.536,-4.5405,-4.5473,-4.5519,-4.5591,-4.565,-4.5765,-4.58,-4.5867,-4.5866,-4.5926,-4.5875,-4.5871,-4.5868,-4.5864,-4.5871,-4.5936,-4.5937,-4.5938,-4.5939,0,-4.5155,-4.5167,-4.5231,-4.53,-4.5353,-4.5408,-4.5462,-4.5496,-4.5525,-4.5576,-4.5651,-4.5697,-4.5787,-4.5858,-4.5927,-4.5958,-4.5954,-4.5955,-4.5972,-4.597,-4.596,-4.5967,-4.5788,-4.5951,-4.595,-4.5949,-4.5948,-4.5948,-4.5247,-4.5302,-4.5359,-4.543,-4.5473,-4.5524,-4.5578,-4.5611,-4.5674,-4.575,-4.5758,-4.5839,-4.5892,-4.5984,-4.6019,-4.6081,-4.6064,-4.6089,-4.6095,-4.6101,-4.6106,-4.595,-4.6093,-4.6093,-4.6093,-4.6093,-4.6092,0,-4.5382,-4.5419,-4.5484,-4.556,-4.5616,-4.5609,-4.5668,-4.5715,-4.5787,-4.5837,-4.5896,-4.5982,-4.6052,-4.6092,-4.6162,-4.6204,-4.6204,-4.6222,-4.6219,-4.6227,-4.6117,-4.6096,-4.6221,-4.6221,-4.6221,-4.6221,-4.6221,-4.6221,-4.5459,-4.5551,-4.557,-4.5684,-4.5719,-4.58,-4.5834,-4.588,-4.5921,-4.6018,-4.6077,-4.6103,-4.615,-4.6223,-4.6287,-4.6297,-4.6323,-4.6342,-4.6351,-4.6247,-4.6234,-4.6222,-4.6202,-4.6347,-4.6348,-4.6456,-4.6456,-4.6457]}]]